Greenville Downtown, SC

11:05 PM EDT on July 21, 2017 (GMT -0400)
Greenville Downtown

Weather History for KGMU - April, 2012

Change the Weather History Date:

Monday, April 9, 2012

  Actual Average Record
Temperature  
Mean Temperature 66 °F -  
Max Temperature 78 °F 68 °F 88 °F (2015)
Min Temperature 55 °F 49 °F 37 °F (2007)
Cooling Degree Days 2    
Growing Degree Days 16 (Base 50)    
Moisture  
Dew Point 30 °F    
Average Humidity 27    
Maximum Humidity 46    
Minimum Humidity 12    
Precipitation  
Precipitation 0.00 in - - ()
Sea Level Pressure  
Sea Level Pressure 30.01 in    
Wind  
Wind Speed 10 mph (WNW)    
Max Wind Speed 20 mph    
Max Gust Speed 30 mph    
Visibility 10 miles    
Events      
Averages and records for this station are not official NWS values.
T = Trace of Precipitation, MM = Missing Value Source: NWS Daily Summary

Daily Weather History Graph

Daily Weather History Graph

Search for Another Location

Airport or City:

Trip Planner

Search our weather history database for the weather conditions in past years. The results will help you decide how hot, cold, wet, or windy it might be!

Date:

Astronomy

Apr. 09, 2012 Rise Set
Actual Time 7:04 AM EDT 7:57 PM EDT
Civil Twilight 6:39 AM EDT 8:23 PM EDT
Nautical Twilight 6:08 AM EDT 8:53 PM EDT
Astronomical Twilight 5:37 AM EDT 9:25 PM EDT
Moon 11:41 PM EDT (4/9) 8:59 AM EDT (4/9)
Length of Visible Light 13h 44m
Length of Day
12h 52m
Waning Gibbous, 88% of the Moon is Illuminated
Apr 9
Waning Gibbous
Apr 13
Last Quarter
Apr 21
New
Apr 29
First Quarter
May 5
Full

Hourly Weather History & Observations

Time (EDT) Temp. Dew Point Humidity Pressure Visibility Wind Dir Wind Speed Gust Speed Precip Events Conditions
12:53 AM 63.0 °F 42.1 °F 46% 30.03 in 10.0 mi NNE 9.2 mph - N/A   Clear
1:53 AM 63.0 °F 39.0 °F 41% 30.04 in 10.0 mi North 8.1 mph - N/A   Clear
2:53 AM 60.1 °F 37.0 °F 42% 30.03 in 10.0 mi North 8.1 mph - N/A   Clear
3:53 AM 60.1 °F 32.0 °F 35% 30.05 in 10.0 mi NNW 8.1 mph - N/A   Clear
4:53 AM 57.9 °F 30.9 °F 36% 30.05 in 10.0 mi North 10.4 mph - N/A   Clear
5:53 AM 57.0 °F 30.0 °F 36% 30.05 in 10.0 mi North 16.1 mph 28.8 mph N/A   Clear
6:53 AM 55.9 °F 30.0 °F 37% 30.08 in 10.0 mi North 11.5 mph - N/A   Clear
7:53 AM 55.9 °F 30.9 °F 39% 30.10 in 10.0 mi Calm Calm - N/A   Clear
9:53 AM 63.0 °F 32.0 °F 31% 30.10 in 10.0 mi NNE 6.9 mph - N/A   Clear
10:53 AM 66.9 °F 30.0 °F 25% 30.11 in 10.0 mi Variable 3.5 mph - N/A   Clear
11:53 AM 68.0 °F 28.9 °F 23% 30.09 in 10.0 mi Calm Calm - N/A   Clear
12:53 PM 71.1 °F 30.9 °F 23% 30.06 in 10.0 mi SW 10.4 mph 16.1 mph N/A   Clear
1:53 PM 73.0 °F 28.9 °F 20% 30.03 in 10.0 mi SSW 13.8 mph - N/A   Clear
2:53 PM 75.0 °F 30.0 °F 19% 29.99 in 10.0 mi WSW 12.7 mph 20.7 mph 0.00 in   Clear
3:53 PM 75.0 °F 32.0 °F 21% 29.95 in 10.0 mi SW 15.0 mph 24.2 mph N/A   Clear
4:53 PM 75.9 °F 30.9 °F 19% 29.92 in 10.0 mi SW 19.6 mph 26.5 mph N/A   Clear
5:53 PM 78.1 °F 21.9 °F 12% 29.89 in 10.0 mi West 18.4 mph 26.5 mph N/A   Clear
6:53 PM 75.9 °F 19.0 °F 12% 29.89 in 10.0 mi West 17.3 mph 29.9 mph N/A   Clear
7:53 PM 72.0 °F 19.0 °F 13% 29.91 in 10.0 mi West 18.4 mph 24.2 mph N/A   Clear
8:53 PM 69.1 °F 24.1 °F 18% 29.92 in 10.0 mi West 16.1 mph 21.9 mph N/A   Clear
9:53 PM 66.0 °F 27.0 °F 23% 29.95 in 10.0 mi West 10.4 mph - N/A   Clear
10:53 PM 64.9 °F 28.0 °F 25% 29.96 in 10.0 mi WNW 3.5 mph - N/A   Clear
11:53 PM 64.0 °F 30.0 °F 28% 29.96 in 10.0 mi West 6.9 mph - N/A   Clear